CAPE
238 272 358 943 967 887 1108 794 955 1255 905 1734 1257 1305 864 1254 1537 1216 1371 1320 1246 1054 1018 1010 963 896 776 576 470 844 1201 957 672 900 263 241 502 505 126 289 555 634 714
353 258 267 966 1049 955 1106 1101 1709 1327 953 1620 1344 991 712 1308 1416 1378 1107 1308 1178 1331 1392 1108 1084 1305 940 961 772 778 758 959 779 559 521 263 138 442 188 302 967 356 1022
320 379 387 533 1031 1139 1363 1401 1936 1717 1825 2104 903 556 510 1182 1205 1378 1189 1675 1848 2192 2081 1276 916 1721 1498 1154 1288 1348 1506 1239 1058 890 418 366 126 84 256 281 549 433 162
428 485 429 472 757 1216 1350 1798 1959 1901 1785 2101 1289 1401 1145 1057 1399 1603 1788 1975 2005 1953 2176 1965 1809 1741 1714 1169 1017 1517 1343 808 670 707 914 452 567 211 31 168 283 59 158
619 606 598 584 659 1127 1471 1554 2479 2122 1893 2122 2566 1420 1811 1782 1347 1485 2035 2305 2047 1998 2061 1929 1774 1786 1496 1555 1236 625 1053 1037 793 732 759 567 670 442 223 77 239 73 84
675 667 642 601 737 1017 1513 1722 2080 2310 2309 1951 2154 2349 1695 1594 1851 1961 1946 1940 2152 2032 1719 2051 1809 1725 1626 1330 805 128 21 22 567 710 639 473 74 70 126 63 208 180 76
675 615 704 697 772 1119 1569 1872 1827 2172 1791 2975 2344 2293 2465 2383 2079 1926 1931 1819 1621 1157 2212 1819 1737 1489 1656 553 26 0 1 101 29 564 483 833 792 678 415 102 0 0 0
370 585 705 718 917 1079 1587 2147 2057 2315 2090 2176 2597 2481 2609 2928 2159 1909 1610 1698 2063 1767 2103 1735 1479 1826 802 178 11 0 0 0 207 494 550 383 194 48 0 0 0 0 0
279 398 826 1076 1000 1058 1691 2327 2176 2327 2476 2158 2349 2847 2388 2755 2354 1897 1910 1650 1612 1872 1316 1635 1305 707 310 46 0 0 0 19 172 173 214 53 0 0 0 0 0 0 0
64 274 939 1261 1241 1215 1578 2351 2332 2345 2521 2194 2129 2532 2943 2764 2460 2380 2468 2023 1410 1616 1535 1620 905 700 288 53 0 0 1 0 2 0 0 0 0 0 0 0 0 0 0
159 340 583 1245 1297 1494 1651 2307 2420 2464 2418 2335 2071 1993 2185 2514 2662 2508 2398 2496 1940 2262 1730 1790 1464 884 335 126 9 0 0 0 0 0 0 0 0 0 0 0 0 0 0
262 634 655 979 1354 1471 1684 2186 2211 2364 2386 2297 2128 2122 1980 2106 2252 2380 2222 2121 2361 2107 1686 1716 1567 1387 514 235 58 23 33 42 0 0 0 0 0 0 0 0 0 0 0
473 670 1446 1699 1640 2023 1674 1658 1735 1790 2082 2086 2088 2114 1867 2014 1898 1882 2238 2234 2233 2158 1630 1356 1370 1415 922 401 45 30 49 93 1 21 41 41 25 0 0 0 0 0 0
2474 2610 2862 3015 3008 3095 2984 2932 3097 3084 2180 1868 2340 1936 2074 1944 1899 1599 1645 1759 2117 1638 1386 835 781 598 405 449 274 198 158 146 196 131 246 56 108 15 5 0 0 0 0
2192 2270 2447 2722 3021 3233 3339 3069 2863 2513 1843 1606 1500 1316 879 649 621 527 456 580 558 313 209 417 18 7 510 778 561 210 262 215 229 160 188 146 60 116 0 0 0 0 0
2003 2115 2342 2463 2593 2536 2576 2520 1966 1366 971 789 623 552 371 254 237 342 379 286 414 325 45 23 0 0 371 1201 412 172 287 260 288 152 174 3 12 0 0 0 0 0 0
1814 2013 1838 1700 1718 1457 1434 1570 1377 903 647 536 518 494 401 307 347 274 193 153 159 243 263 231 204 365 505 626 275 44 62 180 216 189 160 7 1 0 0 0 0 0 0
1786 1779 1523 1505 1344 1059 934 724 692 611 494 453 304 241 271 145 0 0 0 0 0 0 0 92 143 123 109 275 226 15 5 39 88 157 196 102 2 0 0 0 0 0 0
1459 1350 1198 1060 979 792 657 481 362 429 348 290 270 248 95 1 0 0 0 0 4 4 2 1 1 1 16 7 22 0 0 8 4 31 11 4 0 0 10 12 6 7 1
1027 1019 805 732 658 736 523 327 225 147 107 193 284 267 20 0 0 0 0 0 1 2 2 2 0 0 0 0 0 0 2 2 6 6 0 0 0 0 0 0 0 0 0
859 730 635 614 704 581 355 266 203 113 126 254 258 101 43 0 0 0 0 0 0 0 1 1 3 2 1 0 0 0 0 0 3 5 3 2 0 0 0 0 0 0 0
745 751 721 748 718 444 355 395 254 344 301 170 12 0 0 0 0 0 0 0 0 0 0 3 1 3 1 0 0 0 0 0 1 3 1 0 0 0 0 0 0 0 0
648 607 480 458 555 467 289 349 318 299 359 66 0 0 0 0 0 0 0 0 0 0 0 0 0 1 1 0 0 0 0 0 0 0 0 0 0 0 0 0 0 0 0
480 492 525 556 488 417 400 431 470 366 253 0 0 0 0 0 0 0 0 0 0 0 0 0 0 0 0 0 0 0 0 0 0 0 0 0 0 0 0 0 0 0 0
400 336 480 409 296 211 148 241 217 0 0 9 0 0 0 0 0 0 0 0 0 0 0 0 0 0 0 0 0 0 0 0 0 0 1 0 0 0 0 0 0 0 0
201 231 305 274 152 89 162 122 107 0 0 0 0 0 3 0 0 0 0 0 0 0 0 0 0 0 0 1 2 2 1 1 0 0 0 9 13 19 0 0 0 0 2
CIN
-66 -41 -54 -73 -88 -92 -61 -72 -92 -102 -86 -80 -65 -79 -71 -76 -58 -66 -42 -41 -47 -33 -36 -50 -73 -74 -67 -109 -127 -66 -39 -60 -63 -61 -126 -131 -166 -186 -253 -193 -115 -138 -108
-95 -86 -94 -79 -92 -127 -107 -75 -60 -107 -107 -65 -87 -157 -196 -72 -57 -64 -65 -55 -67 -56 -55 -61 -54 -49 -50 -33 -55 -47 -43 -51 -54 -72 -91 -77 -140 -196 -240 -194 -6 -91 -88
-129 -124 -119 -133 -116 -149 -137 -142 -95 -70 -47 -40 -150 -255 -258 -96 -72 -91 -80 -60 -37 -32 -38 -54 -60 -32 -39 -48 -47 -36 -24 -26 -58 -53 -69 -53 -53 -119 -162 -136 -81 -22 -126
-138 -148 -122 -154 -136 -153 -149 -130 -145 -115 -72 -40 -63 -70 -74 -43 -53 -60 -66 -66 -57 -31 -31 -39 -37 -32 -41 -51 -51 -21 -25 -43 -54 -61 -60 -91 -54 -40 -43 -90 -105 -198 -146
-98 -130 -137 -121 -129 -144 -170 -173 -138 -139 -81 -49 -38 -70 -46 -47 -58 -66 -74 -48 -59 -57 -41 -35 -30 -48 -43 -34 -30 -35 -23 -29 -27 -27 -29 -43 -50 -61 -57 -53 -114 -230 -220
-91 -95 -116 -116 -150 -160 -163 -195 -186 -148 -111 -73 -53 -40 -54 -46 -49 -55 -41 -52 -55 -65 -58 -33 -36 -34 -34 -23 -36 -125 -165 -158 -32 -31 -36 -41 -62 -67 -70 -97 -89 -115 -147
-81 -101 -110 -110 -179 -209 -202 -223 -221 -160 -161 -71 -64 -61 -59 -40 -39 -45 -49 -48 -62 -90 -71 -58 -44 -50 -37 -115 -124 0 -9 -119 -138 -27 -33 -46 -51 -72 -64 -60 0 0 0
-89 -96 -125 -159 -211 -240 -251 -194 -238 -177 -167 -138 -84 -72 -47 -38 -67 -63 -80 -62 -47 -53 -81 -74 -61 -41 -104 -192 -106 0 0 0 -100 -26 -40 -54 -76 -135 0 0 0 0 0
-60 -113 -171 -200 -253 -293 -277 -269 -273 -224 -182 -173 -119 -69 -74 -48 -58 -66 -64 -65 -67 -60 -77 -68 -79 -135 -185 -190 0 0 0 -119 -131 -112 -84 -120 0 0 0 0 0 0 0
-156 -118 -173 -190 -243 -253 -316 -278 -281 -232 -185 -207 -187 -101 -54 -56 -59 -58 -41 -52 -66 -52 -55 -61 -101 -131 -207 -311 0 0 -16 0 -51 0 0 0 0 0 0 0 0 0 0
-149 -106 -159 -178 -205 -234 -253 -276 -236 -205 -179 -172 -205 -178 -123 -60 -49 -43 -39 -39 -56 -41 -61 -63 -59 -110 -187 -261 -250 0 0 0 0 0 0 0 0 0 0 0 0 0 0
-144 -130 -139 -149 -162 -214 -231 -227 -234 -201 -180 -166 -197 -187 -169 -117 -86 -71 -77 -72 -56 -57 -65 -63 -52 -51 -165 -232 -337 -350 -339 -357 0 0 0 0 0 0 0 0 0 0 0
-127 -137 -156 -186 -185 -166 -209 -194 -208 -195 -173 -183 -168 -152 -165 -133 -105 -102 -60 -50 -66 -76 -71 -93 -51 -52 -93 -129 -260 -286 -267 -257 -68 -282 -292 -238 -217 0 0 0 0 0 0
-139 -148 -153 -155 -137 -116 -96 -76 -42 -44 -90 -109 -107 -107 -101 -85 -71 -102 -132 -91 -56 -60 -23 -98 -106 -142 -247 -144 -121 -140 -164 -176 -176 -165 -138 -217 -191 -230 -142 0 0 0 0
-214 -200 -191 -195 -176 -156 -168 -175 -177 -215 -302 -317 -290 -266 -370 -404 -391 -381 -338 -290 -245 -257 -175 -31 -55 -198 -144 -95 -35 -121 -111 -137 -108 -123 -112 -139 -230 -131 0 0 0 0 0
-255 -251 -240 -217 -214 -217 -189 -187 -248 -341 -403 -408 -426 -412 -456 -465 -422 -353 -291 -264 -190 -161 -250 -311 0 0 -116 -8 -68 -131 -69 -74 -56 -92 -85 -210 -220 -5 0 0 0 0 0
-279 -266 -304 -301 -280 -308 -287 -242 -260 -343 -396 -387 -349 -337 -329 -334 -286 -291 -315 -307 -196 -105 -102 -107 -132 -82 -34 -17 -66 -137 -136 -58 -48 -52 -54 -76 -11 0 0 0 0 0 0
-287 -289 -307 -277 -289 -327 -334 -369 -332 -344 -376 -363 -404 -384 -304 -331 0 0 0 0 0 0 0 -187 -124 -136 -101 -28 -41 -125 -135 -95 -63 -45 -52 -61 -69 0 0 0 0 0 0
-319 -319 -319 -328 -314 -342 -361 -421 -454 -371 -384 -370 -324 -284 -364 -70 0 0 0 0 0 0 0 0 0 0 -20 -32 -9 0 0 -80 -16 -90 -146 -87 0 0 -51 -28 -39 -94 -11
-365 -359 -392 -385 -384 -318 -398 -488 -519 -538 -528 -367 -232 -188 -408 0 0 0 0 0 -1 -1 0 0 0 0 0 0 0 0 0 0 0 0 0 0 0 0 0 0 0 0 0
-397 -411 -418 -401 -322 -353 -447 -467 -460 -498 -424 -227 -180 -271 -291 0 0 0 0 0 0 -1 0 0 0 0 0 0 0 0 0 0 0 0 0 -1 -1 0 0 0 0 0 0
-406 -374 -359 -302 -276 -374 -393 -317 -366 -231 -201 -247 -337 0 0 0 0 0 0 0 0 0 0 -1 0 0 0 0 0 0 0 0 0 0 0 0 0 0 0 0 0 0 0
-425 -388 -419 -393 -306 -309 -375 -273 -236 -194 -102 -293 0 0 0 0 0 0 0 0 0 0 -1 0 0 0 0 0 0 0 0 0 0 0 0 0 0 0 0 0 -17 0 0
-460 -406 -352 -298 -271 -259 -216 -147 -82 -85 -99 0 0 0 0 0 0 0 0 0 0 0 0 0 0 0 0 0 0 0 0 0 0 0 0 0 0 0 0 0 0 0 0
-460 -458 -340 -322 -333 -329 -323 -186 -143 0 0 -120 0 0 0 0 0 0 0 0 0 0 0 0 0 0 0 0 0 0 0 0 0 0 -28 0 0 0 0 0 0 0 0
-536 -461 -361 -326 -352 -350 -244 -207 -173 0 0 0 -18 0 -31 0 0 0 0 0 0 0 0 0 0 0 0 0 0 0 0 0 0 0 0 -15 -15 -16 0 0 0 0 -4
Wind_Speed
9 9 12 16 13 10 8 9 10 8 6 3 3 1 2 2 2 4 5 5 5 5 5 2 2 3 4 5 6 3 3 3 1 2 4 3 1 4 3 4 8 8 3
13 12 10 17 16 14 12 9 10 10 7 4 4 3 2 3 3 3 4 5 6 6 5 5 4 3 2 3 3 3 1 2 1 2 2 3 3 3 5 5 3 17 8
15 14 12 16 17 16 15 13 13 10 7 6 7 3 2 3 5 4 4 6 6 4 6 7 5 4 2 2 2 3 2 2 3 3 3 1 2 3 2 4 3 7 5
15 16 14 14 17 17 15 14 15 13 8 7 9 7 5 5 4 4 3 4 6 6 5 6 6 5 2 2 3 2 2 1 3 3 2 2 4 0 4 1 3 2 3
17 17 17 15 17 16 16 14 12 13 9 7 5 5 5 3 2 3 5 6 6 7 7 6 6 6 3 3 3 3 3 1 0 1 1 1 2 2 3 2 2 3 5
17 14 15 12 13 16 14 14 12 13 9 8 8 6 6 5 2 2 3 3 3 4 5 4 4 5 4 2 1 1 1 2 2 2 2 2 2 2 2 1 3 4 4
17 11 9 15 11 17 14 13 13 9 10 9 8 8 7 7 7 6 4 4 3 4 6 6 5 4 5 6 4 1 2 3 2 3 2 1 2 3 3 4 2 1 3
13 13 12 13 13 16 16 15 12 9 8 7 8 7 7 4 4 5 5 4 3 3 5 6 6 6 6 5 3 2 2 4 4 3 3 1 2 1 2 3 3 2 3
11 10 10 10 10 12 16 16 13 10 9 8 6 6 7 6 5 7 5 5 5 4 7 7 7 8 7 7 4 2 3 4 0 3 4 1 2 2 1 3 3 5 1
9 9 10 9 8 9 10 13 12 11 8 7 6 6 6 6 6 5 6 7 7 6 7 8 8 7 7 7 5 1 4 4 2 2 1 1 1 3 3 1 2 1 4
10 9 9 8 9 8 9 11 9 9 7 7 8 8 8 7 7 7 7 7 7 8 8 8 7 7 7 7 6 4 3 3 3 2 3 3 1 1 2 2 3 3 3
9 9 9 10 9 9 9 11 12 12 12 12 11 13 12 11 10 11 11 9 9 7 6 5 5 5 7 8 8 6 5 7 7 5 3 4 2 0 3 3 4 1 1
10 9 10 8 8 8 4 8 10 11 12 11 12 9 13 11 13 11 14 12 11 9 9 8 7 7 3 5 3 7 5 5 6 6 7 5 1 2 2 2 3 3 3
18 13 12 11 9 8 7 7 6 5 1 6 5 6 4 8 7 5 5 8 9 9 11 11 6 3 7 3 7 6 6 6 6 6 6 6 6 6 4 2 1 1 1
16 13 12 12 11 11 13 12 12 14 12 14 12 11 10 10 11 10 9 10 9 6 13 8 4 7 7 6 7 7 8 8 7 6 6 6 7 8 7 4 2 3 2
14 14 13 13 13 12 11 12 12 12 11 13 11 9 10 9 8 9 9 8 8 7 3 7 6 8 5 12 7 6 8 9 7 7 6 6 9 9 10 10 8 6 4
12 12 12 11 11 11 9 11 11 10 11 10 8 8 7 7 7 8 10 10 6 1 1 4 5 5 4 5 3 9 6 7 9 7 6 6 6 6 6 7 7 4 5
12 12 10 8 9 8 10 10 9 7 7 8 8 7 7 9 8 9 9 9 9 7 5 4 5 5 5 8 7 10 6 6 7 8 6 5 5 9 9 6 5 4 5
12 11 9 8 7 8 8 7 6 7 7 7 7 8 7 8 9 10 9 8 9 11 11 10 10 9 8 13 7 5 4 3 8 5 5 1 4 7 9 6 4 2 4
11 11 10 7 7 7 7 7 7 6 6 6 6 6 7 8 10 10 11 10 8 10 10 13 14 18 13 13 14 16 12 12 9 12 14 25 17 16 17 10 8 8 8
13 11 7 6 6 8 7 7 6 6 5 6 6 7 6 7 6 6 5 8 10 9 11 11 11 12 14 15 15 12 7 8 7 8 8 10 16 19 17 14 8 5 5
11 8 6 5 7 7 7 5 5 4 6 6 6 7 7 5 4 5 4 6 7 10 10 10 9 8 10 14 15 17 14 10 8 9 6 5 10 11 7 4 6 7 5
10 8 7 7 7 6 6 5 3 5 7 7 6 6 6 6 6 7 7 5 4 4 5 5 5 5 4 5 11 10 9 9 5 4 6 7 7 4 2 2 7 7 3
10 7 8 7 7 5 5 4 6 6 7 7 6 5 6 6 6 5 4 5 5 5 4 4 4 4 4 4 4 3 3 5 4 3 2 3 1 1 2 3 4 3 3
11 9 8 6 6 5 5 5 5 7 6 7 5 5 5 6 5 5 4 3 1 1 3 2 3 3 3 2 4 4 4 4 3 4 2 2 2 2 2 2 3 3 3
11 8 8 8 7 5 4 5 4 6 4 2 4 2 4 5 4 4 4 6 4 4 5 3 5 2 2 2 3 4 4 2 3 2 2 2 1 1 1 1 2 1 2
Wind_Direction
168 159 145 146 147 145 138 165 154 159 139 158 154 125 221 234 249 226 228 206 194 209 170 187 209 235 207 226 239 234 256 282 222 345 314 280 339 25 109 67 337 283 209
167 177 164 155 159 162 162 160 154 157 169 179 126 122 224 230 203 212 240 229 228 211 194 175 228 270 221 282 244 236 292 280 236 226 262 330 311 310 54 70 289 277 170
179 179 180 170 163 168 171 167 161 166 181 157 136 155 336 272 245 212 217 217 196 202 183 179 189 215 184 233 291 249 192 238 277 182 176 338 290 332 45 247 265 296 343
181 180 191 175 170 174 173 166 165 165 180 189 166 171 183 187 205 168 200 190 199 216 213 189 188 189 192 239 255 258 183 134 280 332 245 201 154 163 345 244 199 231 257
174 184 191 178 177 168 172 172 162 168 166 185 171 183 178 218 135 183 174 186 199 209 217 190 179 179 182 232 229 299 299 240 275 166 344 344 317 161 135 287 330 333 303
181 178 186 175 166 173 161 167 166 172 164 175 183 197 200 198 145 142 174 191 204 217 212 197 155 163 178 198 101 153 289 275 267 202 216 158 167 219 133 199 232 223 264
173 177 151 169 150 167 162 165 169 174 181 172 182 195 215 197 180 180 193 205 205 215 202 178 179 192 194 163 142 176 281 275 262 240 218 220 238 203 180 158 209 195 297
152 165 159 164 153 161 160 163 169 170 181 187 188 188 209 210 194 201 209 222 204 217 172 179 191 196 163 146 142 219 264 268 256 234 211 201 310 315 143 145 125 356 337
127 133 143 141 143 147 160 162 169 174 177 183 185 202 209 216 213 225 222 221 219 183 186 189 181 170 158 146 147 222 280 254 269 307 280 123 355 8 117 116 127 147 90
127 128 136 138 143 146 142 156 162 171 176 176 192 206 211 217 225 232 231 215 222 224 185 177 179 172 154 150 154 238 301 225 231 351 161 68 336 9 356 60 88 100 142
133 134 126 139 139 136 135 145 152 158 178 188 194 211 218 216 214 224 233 227 215 210 200 174 178 166 161 160 162 192 246 230 249 279 223 212 176 76 8 38 78 69 98
129 124 126 134 139 144 150 153 167 174 187 195 200 202 210 213 217 222 229 232 223 207 207 176 175 173 178 174 176 199 216 204 203 228 238 233 210 195 348 30 49 62 60
111 108 83 72 69 53 147 162 172 185 195 198 205 204 211 211 220 220 223 229 225 193 166 154 188 203 254 298 210 176 223 246 233 216 189 197 178 175 123 84 23 26 26
76 73 69 72 71 66 67 74 61 28 215 216 203 219 229 229 252 307 342 296 247 13 278 80 353 133 168 237 231 225 207 235 224 236 207 191 181 180 163 112 343 206 36
72 70 67 61 51 46 49 52 48 41 41 50 47 34 29 26 35 33 20 22 17 116 119 184 258 281 262 220 217 198 209 213 231 238 206 183 146 153 152 137 107 78 86
79 70 62 62 59 53 49 49 50 49 51 56 48 47 47 42 27 19 16 35 34 41 161 206 254 274 261 227 198 218 221 211 210 216 199 154 146 157 145 136 148 154 151
88 77 72 64 66 60 52 56 56 51 52 57 51 52 42 38 25 14 12 11 33 49 164 245 255 268 291 328 246 225 244 229 206 202 181 177 179 150 145 158 164 167 209
96 87 81 70 75 72 62 61 60 57 55 47 39 30 28 38 29 20 9 357 350 345 340 309 287 283 292 286 265 234 238 240 225 210 204 167 153 167 165 151 162 200 239
105 104 98 86 82 91 95 89 70 57 58 50 41 36 48 45 31 24 8 359 5 16 13 16 18 9 7 348 322 315 293 327 5 331 52 37 84 78 114 136 159 123 5
104 107 104 99 95 98 96 88 81 75 64 57 50 52 58 57 43 26 21 24 31 33 29 31 28 30 27 24 69 72 66 50 56 53 47 55 56 37 55 69 57 48 8
103 99 96 109 120 91 92 85 95 93 81 73 64 48 73 75 69 54 38 46 39 32 38 38 36 35 28 33 45 57 89 106 101 91 73 86 54 45 43 53 38 38 345
114 122 124 107 99 100 99 99 96 116 95 84 73 57 49 37 37 59 63 57 70 59 53 51 46 41 38 38 46 57 61 76 89 87 76 67 93 86 80 63 37 4 350
134 122 119 109 97 106 108 99 129 111 106 94 88 74 62 46 44 48 37 31 55 70 58 48 46 40 36 48 49 56 77 85 92 112 139 124 100 106 104 22 347 341 321
136 125 106 97 107 111 112 114 102 121 120 119 114 104 88 70 56 49 51 48 28 27 38 48 62 62 35 20 20 38 61 68 59 88 129 183 209 354 336 351 318 286 288
121 118 116 123 112 97 75 125 114 109 105 137 157 153 133 100 82 64 49 74 55 356 70 50 67 57 37 2 305 315 347 355 360 337 356 25 27 1 309 265 250 241 243
120 117 127 135 142 137 103 103 118 128 152 120 89 120 142 152 143 117 82 55 37 336 62 58 99 76 74 69 81 63 51 35 341 42 27 22 342 88 26 2 1 12 24